Temperature
23 20 20 20 21 22 22 22 22 22 23 23 22 21 21 21 21 20 20 20 20 19 19 19 19 18 18 18 17 17 17 17 17 17 16 16 16 16 16 15 15 15 15 15
21 21 22 23 23 23 22 22 21 22 23 22 21 21 21 21 20 20 20 20 19 19 19 19 19 18 18 18 17 17 17 17 16 16 16 16 16 16 15 15 15 15 15 15
21 22 24 24 23 23 22 22 22 22 22 22 21 20 21 20 21 20 20 20 20 19 19 19 18 18 18 17 17 17 17 16 16 16 16 16 15 15 15 15 15 15 15 15
22 23 24 24 23 23 22 23 24 23 21 20 21 19 20 20 19 19 20 20 20 19 19 18 18 18 18 17 17 17 16 16 16 16 16 15 15 15 15 15 15 15 15 15
22 23 23 24 24 24 23 24 24 23 21 20 20 18 19 19 19 19 19 19 19 19 19 18 18 18 17 17 17 17 16 16 16 16 15 15 15 15 14 14 14 14 14 14
23 24 24 24 25 25 24 23 22 20 19 19 20 19 18 18 19 19 19 19 19 19 18 18 18 18 17 17 16 16 16 16 15 15 15 15 15 14 14 14 14 14 14 14
23 23 24 25 24 24 23 20 19 19 18 19 19 19 18 19 20 19 19 19 19 19 18 18 18 17 17 16 16 16 16 15 15 15 15 15 14 14 14 14 14 14 14 14
21 22 23 24 23 23 22 21 19 20 19 19 19 19 19 20 20 20 20 19 19 18 18 18 18 17 17 17 16 16 16 15 15 15 15 14 14 14 14 14 14 14 14 14
21 22 24 25 25 24 23 21 20 19 19 19 19 19 19 19 19 19 18 18 18 18 18 18 18 17 17 17 16 16 16 15 15 15 14 14 14 14 14 14 14 14 14 14
22 22 23 25 25 24 23 21 19 19 19 19 19 19 18 19 18 18 17 17 17 18 18 18 17 17 17 17 16 16 15 15 15 15 14 14 14 14 14 14 14 13 13 13
22 21 22 23 23 23 23 21 19 17 18 18 18 18 20 18 18 17 17 18 17 17 17 17 17 17 17 16 16 16 15 15 15 14 14 14 14 14 13 13 13 13 13 13
21 19 20 22 23 23 23 22 19 19 19 18 17 18 19 18 18 18 18 18 18 18 18 18 17 17 16 16 16 16 15 15 15 14 14 14 14 13 13 13 13 13 13 13
21 19 19 20 21 22 22 22 20 18 17 17 17 18 19 18 18 18 18 18 18 18 17 17 17 17 16 16 16 15 15 15 15 14 14 14 13 13 13 13 13 13 13 13
21 18 19 20 20 21 21 22 21 19 18 18 18 18 18 17 17 17 17 18 18 17 17 17 17 16 16 16 16 15 15 15 15 14 14 14 13 13 13 13 13 13 13 13
19 19 20 20 22 22 22 22 22 20 19 18 18 18 17 17 17 17 18 18 17 17 17 17 17 16 16 16 16 15 15 15 15 14 14 14 13 13 13 13 13 13 13 13
18 19 20 20 22 21 21 21 21 21 20 19 18 18 17 17 18 17 17 17 17 17 17 17 17 17 16 16 16 15 15 15 14 14 14 14 13 13 13 13 13 13 13 13
17 18 18 19 20 20 19 20 20 20 19 18 17 17 16 16 17 17 17 17 16 17 17 16 16 16 16 16 16 15 15 15 14 14 14 14 14 13 13 13 13 13 13 12
17 17 16 17 19 19 19 20 20 19 18 18 17 17 16 16 17 17 17 17 17 17 17 16 16 16 16 16 16 15 15 14 14 14 14 14 14 13 13 13 13 13 13 12
17 17 16 16 18 18 19 20 20 19 18 18 17 17 17 17 17 16 17 17 17 17 17 17 16 16 16 16 15 15 15 14 14 14 14 14 14 13 13 13 13 13 13 12
17 16 16 16 18 18 18 20 21 19 17 17 17 16 16 16 14 15 16 17 17 17 16 16 16 16 16 15 15 15 14 14 14 14 14 14 13 13 13 13 13 13 12 12
17 16 16 16 17 17 18 20 20 18 17 18 17 17 16 16 16 16 17 17 16 16 16 16 16 16 15 15 15 14 14 14 14 14 14 13 13 13 13 13 13 13 12 12
16 16 16 15 16 16 18 18 17 17 18 18 18 17 17 17 17 16 16 16 16 16 16 16 16 15 15 15 14 14 14 14 14 14 13 13 13 13 13 13 13 12 12 12
16 15 15 15 15 16 18 18 18 19 18 18 18 18 17 17 16 16 16 16 16 16 16 15 15 15 15 14 14 14 14 14 14 14 13 13 13 13 13 13 13 12 12 12
16 16 15 15 15 16 17 18 18 18 18 18 18 18 17 17 16 16 16 15 15 15 15 15 15 15 14 14 14 14 14 14 13 13 13 13 13 13 13 13 13 12 12 12
15 15 14 14 15 16 17 17 17 18 18 18 18 17 17 17 16 16 15 15 15 15 15 14 14 14 14 14 14 14 13 13 13 13 13 13 13 13 13 13 12 12 12 12
14 14 13 13 15 14 15 16 17 17 17 17 17 17 17 17 16 16 15 15 15 15 14 14 14 14 14 14 14 13 13 13 13 13 13 13 13 13 13 13 13 12 12 12
Wind_Speed
2 2 5 8 8 8 6 4 6 8 4 0 2 2 4 3 4 5 5 5 5 5 5 6 6 7 6 5 4 4 3 2 1 1 1 1 0 0 0 0 1 2 3 3
2 6 11 9 6 6 6 5 6 6 3 1 1 2 3 3 5 6 6 6 6 5 4 6 5 6 6 6 5 4 4 3 3 2 1 1 1 0 0 0 1 0 1 2
8 9 7 6 6 5 7 7 7 5 3 1 2 4 3 1 1 2 4 5 6 8 8 6 6 5 6 5 5 5 4 3 2 2 2 2 2 2 2 2 1 1 1 2
7 7 6 6 6 6 8 8 7 4 1 2 1 2 5 2 0 1 3 4 5 6 7 6 6 5 5 4 4 4 3 3 2 3 3 3 2 0 1 1 1 1 1 1
6 4 5 8 9 7 7 6 4 4 3 1 2 1 6 1 2 3 3 4 5 6 7 7 6 5 5 5 4 4 3 3 2 3 3 3 1 1 1 1 1 1 2 1
8 5 5 7 6 6 4 1 4 4 4 1 3 3 5 4 6 4 4 5 6 7 7 6 5 5 4 4 4 3 4 2 2 3 3 3 2 1 1 1 1 1 1 1
6 6 5 3 2 3 2 4 3 4 3 4 3 2 6 7 5 6 7 6 7 7 7 6 6 5 4 3 3 3 4 2 2 3 2 2 2 2 2 2 1 1 0 0
3 6 5 3 5 5 4 7 6 4 4 3 2 3 6 5 3 4 6 7 8 7 6 6 6 5 4 3 2 3 4 3 2 2 1 1 1 1 1 1 1 1 1 1
4 5 5 5 4 6 3 3 6 6 1 0 2 3 4 1 2 4 6 6 6 8 8 7 6 5 5 4 3 3 3 2 2 2 2 1 1 1 1 1 1 0 1 1
6 4 6 4 2 1 5 5 5 5 3 2 3 3 4 3 2 4 6 6 5 6 7 7 6 5 4 4 3 3 3 3 2 2 1 1 1 1 1 1 1 1 0 1
4 4 4 3 1 3 1 3 4 4 5 5 3 5 4 7 6 6 7 7 7 6 7 7 6 5 5 4 3 3 3 3 2 2 2 2 1 1 1 1 0 1 0 1
3 4 2 4 5 4 3 4 5 4 3 4 3 5 4 5 5 6 6 6 6 5 5 6 6 6 5 4 3 3 3 3 3 2 2 1 1 1 1 0 1 1 1 1
3 5 2 6 6 5 3 1 2 5 4 3 4 5 3 2 3 4 7 7 6 6 5 5 5 5 5 5 4 3 3 3 3 3 2 1 1 1 1 1 1 1 1 1
4 4 6 6 5 2 2 3 1 3 3 2 4 5 2 1 3 3 5 7 7 7 6 5 4 4 4 5 4 4 3 3 3 3 3 2 2 2 2 1 1 1 1 1
4 3 3 3 3 1 1 2 1 1 4 5 6 6 6 6 7 6 6 7 7 6 6 5 5 4 4 4 3 4 3 3 3 3 3 3 2 2 2 2 1 1 1 1
3 3 2 1 1 2 2 2 1 0 1 4 4 3 4 3 4 4 5 6 7 7 6 6 5 5 5 5 4 4 3 3 3 4 4 3 2 2 2 2 2 1 1 1
1 3 3 2 2 2 2 2 1 1 2 5 4 4 1 2 4 6 5 5 5 6 6 6 6 6 6 5 5 5 5 4 3 3 3 3 3 2 2 3 1 1 2 1
5 3 3 2 2 2 5 1 4 5 3 2 4 4 5 4 4 3 3 4 4 4 5 6 5 5 4 4 3 4 4 4 4 3 3 3 3 3 2 2 2 2 2 2
5 5 3 3 2 2 3 2 1 3 1 1 4 4 3 4 5 2 1 2 3 3 4 4 5 4 3 3 3 3 3 4 4 3 3 3 3 3 2 2 3 3 2 2
4 5 4 3 3 3 5 5 1 5 0 3 3 5 5 5 3 2 2 0 1 1 3 3 3 3 3 3 3 3 2 3 3 4 4 3 3 3 3 3 3 2 3 3
2 2 2 3 2 3 4 3 3 3 5 4 4 6 6 5 5 4 3 2 1 1 2 3 3 3 3 3 3 3 2 2 3 3 2 2 3 3 3 3 2 2 2 2
3 2 1 2 2 4 5 2 2 5 4 3 4 5 6 4 3 4 4 3 3 2 1 2 3 2 2 3 4 3 3 3 2 1 2 2 3 3 2 3 2 2 2 2
2 4 4 4 4 4 2 2 3 3 2 2 4 4 5 5 4 4 3 4 3 3 1 1 3 2 1 2 3 3 3 2 1 1 2 2 2 2 2 3 3 2 1 2
4 2 3 1 1 2 1 2 2 2 3 2 4 5 5 4 5 4 4 3 3 2 1 1 3 2 1 2 2 3 3 2 2 1 2 2 2 2 1 1 2 2 2 2
3 3 2 1 1 3 3 2 1 2 4 5 4 4 5 6 4 4 4 3 3 2 2 2 3 2 2 2 2 2 2 2 2 2 2 2 2 2 2 2 2 3 3 4
2 0 1 3 4 2 3 3 1 3 3 3 3 3 4 5 5 3 3 2 3 3 2 2 2 2 2 2 2 3 3 3 3 2 2 2 2 2 2 2 2 3 4 6
Wind_Direction
228 119 236 235 216 215 231 248 271 272 260 3 242 234 216 206 155 151 156 162 164 165 152 139 139 136 132 135 135 142 142 152 122 88 101 89 345 336 3 287 223 184 182 176
359 249 241 234 241 231 232 240 261 276 265 161 166 267 242 190 181 166 162 169 171 152 134 134 133 135 142 150 152 151 159 155 150 173 174 175 187 209 225 316 8 76 151 148
218 241 242 236 251 250 250 222 230 229 276 8 59 342 310 324 140 154 160 165 162 158 152 149 150 152 151 155 160 158 159 150 150 145 102 70 47 30 18 10 353 332 140 142
244 252 252 247 249 230 253 236 214 198 138 283 144 260 283 250 285 187 178 149 154 151 146 151 154 157 163 162 145 138 143 138 135 121 113 116 107 69 263 256 264 309 38 94
246 232 239 249 241 219 228 234 199 174 148 335 351 152 278 245 225 234 197 161 153 150 147 154 159 160 155 147 143 144 141 137 139 127 127 123 126 216 276 333 347 342 343 12
245 247 214 230 246 221 212 55 31 45 72 334 253 186 262 237 215 208 187 165 156 156 154 157 147 131 136 148 149 143 134 141 126 113 118 130 144 154 110 355 328 320 325 342
286 283 264 241 286 281 118 97 29 358 5 252 245 185 246 241 212 188 182 177 163 157 158 154 146 146 150 147 153 148 139 148 151 150 152 153 157 150 175 203 211 211 233 301
250 286 265 224 197 199 195 149 160 199 224 259 300 233 257 257 228 168 160 156 152 155 158 157 163 160 156 153 157 155 157 166 172 162 160 157 153 135 174 207 197 196 205 219
199 260 270 240 218 166 160 185 168 144 144 224 269 275 302 316 114 126 136 143 160 163 161 162 164 158 158 157 158 151 150 138 139 134 130 120 120 106 107 104 113 137 208 177
179 237 280 285 37 1 153 159 101 113 146 237 266 255 244 238 196 154 153 155 159 162 164 163 165 165 169 171 168 153 145 143 129 124 145 127 128 117 102 91 87 85 117 107
159 179 296 343 192 216 90 83 111 129 158 167 227 265 239 194 184 177 182 170 161 161 168 167 167 168 163 160 147 143 144 135 131 131 130 132 147 144 117 92 100 147 124 132
159 134 247 269 260 209 154 157 141 148 218 172 172 260 289 184 174 168 169 160 158 158 163 164 159 155 152 155 155 153 153 154 170 168 155 168 179 162 147 188 226 168 153 165
141 114 51 342 342 357 43 70 131 139 130 157 171 250 313 116 124 145 152 161 158 148 143 144 146 157 161 164 169 168 169 176 181 171 165 171 174 165 191 211 216 177 146 145
117 115 156 191 226 244 312 320 335 115 143 190 205 209 263 165 145 155 161 165 156 151 152 149 154 171 175 176 180 183 190 188 180 172 169 181 198 197 198 191 170 161 158 154
92 129 164 204 226 150 326 315 316 166 186 181 200 189 214 204 181 181 176 163 148 153 155 161 169 179 184 184 191 191 195 191 179 175 183 201 205 188 168 166 176 179 171 181
66 138 112 343 348 47 16 7 41 63 139 141 141 203 242 196 153 146 156 160 160 168 171 177 180 185 191 191 195 191 196 196 175 177 193 198 190 178 174 187 182 164 196 223
106 138 139 227 256 41 339 279 158 111 128 141 175 218 178 121 166 169 160 155 166 183 183 186 192 197 199 198 191 188 193 191 176 186 194 186 179 184 201 196 174 196 213 213
154 142 149 161 79 201 243 250 128 108 74 90 129 146 157 181 189 163 135 141 163 175 185 194 196 199 195 187 180 185 176 172 174 186 198 194 184 193 203 186 200 222 219 213
161 148 132 131 168 225 286 286 180 140 94 52 120 133 130 92 74 39 2 124 166 189 193 195 194 189 175 175 175 157 165 166 176 197 207 203 198 198 200 211 220 223 211 222
91 110 125 138 157 215 254 280 201 104 101 279 142 145 135 106 106 252 263 125 112 110 161 168 166 146 153 180 156 138 159 169 197 214 213 210 206 201 206 213 221 221 208 217
42 51 125 159 184 251 277 306 66 120 233 230 166 161 156 168 196 210 174 127 104 84 135 134 138 150 176 173 144 148 168 206 224 219 205 203 211 209 209 209 218 212 213 223
148 133 168 132 152 256 298 59 138 216 209 168 161 167 164 159 142 138 136 124 110 82 56 106 131 159 184 162 151 169 216 234 232 187 184 211 218 221 214 204 226 224 207 217
136 178 180 176 204 240 248 175 211 173 150 156 154 162 145 133 131 132 136 136 136 134 144 111 135 147 186 186 166 187 232 232 183 178 217 237 233 229 207 199 211 219 204 207
335 26 93 90 273 302 47 49 29 93 125 136 142 138 133 139 146 142 146 149 145 147 165 138 126 136 218 232 201 204 219 183 161 216 244 234 215 227 234 211 197 200 214 216
301 354 49 48 324 28 14 354 344 42 75 82 95 116 139 139 144 153 158 164 166 153 154 143 156 178 220 217 212 217 203 170 177 220 246 243 221 216 233 239 231 215 222 217
319 233 173 231 237 202 250 282 53 87 93 106 97 99 136 146 151 145 155 171 162 155 142 139 178 199 219 218 229 232 211 185 186 217 238 236 230 227 222 231 278 273 237 238
Height
1492 1498 1502 1498 1496 1498 1498 1502 1503 1496 1489 1491 1494 1494 1492 1491 1492 1492 1494 1495 1495 1497 1498 1499 1500 1501 1502 1502 1502 1502 1502 1501 1501 1501 1501 1501 1502 1501 1501 1501 1500 1500 1500 1500
1497 1498 1489 1487 1489 1492 1496 1501 1501 1494 1487 1491 1495 1495 1491 1490 1491 1491 1492 1494 1495 1496 1497 1498 1499 1500 1500 1500 1500 1500 1501 1500 1500 1500 1500 1500 1500 1500 1499 1499 1498 1498 1498 1499
1496 1489 1482 1485 1487 1491 1493 1497 1497 1496 1491 1490 1495 1501 1495 1492 1491 1491 1492 1492 1494 1495 1496 1497 1499 1499 1499 1499 1499 1499 1499 1499 1499 1499 1498 1499 1498 1498 1498 1497 1497 1497 1497 1497
1489 1482 1482 1484 1485 1488 1494 1483 1485 1489 1498 1505 1501 1517 1501 1494 1492 1491 1490 1491 1493 1495 1495 1496 1497 1498 1498 1498 1498 1498 1498 1498 1498 1498 1497 1497 1496 1496 1496 1496 1496 1496 1496 1495
1486 1479 1481 1483 1480 1480 1484 1478 1481 1486 1496 1505 1504 1515 1507 1495 1495 1491 1490 1491 1492 1493 1494 1496 1496 1497 1497 1497 1497 1497 1497 1497 1497 1497 1496 1496 1496 1496 1496 1495 1495 1495 1495 1495
1478 1473 1474 1475 1472 1473 1476 1481 1486 1493 1503 1516 1507 1512 1511 1498 1491 1489 1489 1489 1491 1493 1494 1495 1496 1496 1496 1496 1496 1496 1496 1496 1496 1496 1495 1495 1495 1494 1495 1495 1494 1494 1494 1494
1481 1475 1471 1470 1475 1475 1478 1495 1512 1515 1522 1518 1502 1507 1505 1487 1483 1483 1485 1487 1489 1491 1493 1494 1494 1495 1495 1495 1495 1496 1495 1495 1495 1495 1495 1494 1494 1493 1494 1493 1493 1493 1493 1493
1492 1489 1472 1467 1472 1477 1479 1489 1511 1521 1523 1517 1503 1507 1496 1482 1480 1481 1483 1486 1487 1489 1491 1492 1493 1493 1494 1494 1494 1494 1494 1494 1495 1494 1494 1494 1493 1493 1493 1493 1492 1492 1492 1492
1489 1486 1466 1462 1462 1467 1477 1485 1485 1502 1507 1516 1510 1501 1491 1482 1482 1482 1484 1486 1487 1488 1489 1491 1492 1493 1493 1493 1493 1494 1494 1494 1494 1494 1493 1493 1493 1492 1492 1492 1492 1491 1491 1491
1476 1484 1469 1461 1460 1463 1468 1475 1490 1503 1516 1520 1512 1505 1501 1489 1486 1484 1484 1485 1487 1487 1488 1490 1491 1492 1492 1492 1493 1493 1493 1493 1493 1493 1493 1492 1492 1492 1491 1491 1491 1491 1491 1490
1469 1481 1476 1469 1470 1471 1472 1478 1486 1498 1503 1515 1519 1510 1483 1483 1482 1483 1483 1484 1485 1487 1488 1489 1490 1491 1491 1492 1493 1493 1493 1493 1493 1493 1492 1492 1491 1491 1491 1491 1490 1490 1490 1489
1468 1480 1485 1474 1464 1460 1466 1472 1482 1498 1502 1503 1511 1507 1478 1478 1478 1479 1482 1483 1485 1486 1487 1488 1489 1490 1490 1491 1491 1492 1492 1492 1492 1492 1492 1491 1491 1490 1490 1490 1489 1489 1488 1488
1466 1480 1493 1488 1481 1470 1469 1470 1474 1484 1495 1502 1508 1501 1477 1478 1479 1480 1481 1483 1484 1485 1486 1487 1488 1489 1489 1490 1490 1491 1491 1491 1491 1491 1490 1490 1489 1489 1489 1489 1488 1488 1487 1487
1462 1477 1488 1494 1488 1477 1476 1472 1471 1480 1495 1498 1494 1490 1483 1481 1481 1481 1481 1482 1482 1484 1486 1487 1487 1488 1489 1489 1489 1489 1490 1490 1490 1489 1489 1489 1488 1488 1488 1488 1487 1487 1486 1486
1463 1476 1475 1474 1470 1470 1472 1471 1470 1475 1479 1488 1487 1485 1482 1479 1479 1479 1480 1480 1481 1483 1485 1486 1486 1487 1488 1488 1488 1488 1488 1488 1488 1488 1488 1487 1487 1487 1487 1486 1486 1486 1485 1484
1466 1473 1473 1475 1469 1470 1472 1471 1470 1473 1474 1478 1481 1483 1477 1476 1477 1478 1479 1480 1481 1482 1483 1484 1485 1485 1486 1486 1486 1486 1486 1487 1487 1487 1486 1486 1486 1486 1486 1485 1485 1484 1484 1483
1470 1474 1480 1484 1474 1474 1484 1474 1472 1474 1473 1477 1482 1481 1476 1477 1477 1477 1478 1479 1481 1482 1482 1482 1483 1484 1484 1484 1484 1484 1485 1485 1485 1485 1485 1485 1485 1485 1485 1484 1484 1483 1482 1482
1469 1475 1482 1484 1482 1493 1484 1468 1467 1472 1475 1473 1473 1475 1475 1475 1475 1477 1477 1478 1479 1480 1481 1481 1482 1483 1482 1482 1482 1482 1483 1483 1483 1483 1483 1483 1483 1483 1483 1483 1482 1481 1481 1480
1461 1471 1480 1487 1489 1486 1476 1468 1468 1472 1477 1473 1473 1474 1474 1474 1476 1477 1477 1477 1478 1478 1479 1480 1480 1481 1481 1481 1481 1481 1481 1481 1481 1481 1481 1481 1481 1481 1481 1480 1480 1479 1479 1478
1461 1467 1478 1484 1488 1492 1480 1466 1463 1468 1480 1472 1471 1473 1474 1474 1480 1479 1476 1476 1476 1476 1476 1477 1478 1479 1479 1479 1479 1479 1479 1479 1479 1479 1479 1479 1479 1479 1479 1478 1478 1477 1477 1476
1472 1475 1480 1483 1486 1482 1470 1465 1464 1480 1480 1470 1470 1470 1471 1473 1474 1474 1474 1474 1475 1475 1475 1475 1476 1477 1478 1478 1478 1478 1477 1477 1478 1478 1478 1478 1478 1478 1477 1477 1476 1475 1474 1473
1475 1480 1481 1484 1489 1486 1467 1465 1470 1472 1466 1467 1468 1469 1469 1470 1471 1472 1473 1473 1474 1474 1474 1474 1475 1476 1476 1477 1477 1477 1476 1476 1476 1476 1476 1476 1475 1475 1475 1474 1473 1473 1472 1471
1472 1474 1476 1478 1480 1471 1467 1465 1466 1465 1466 1466 1466 1467 1468 1469 1470 1471 1472 1472 1473 1474 1474 1474 1474 1475 1475 1476 1475 1475 1475 1475 1475 1474 1474 1474 1473 1473 1472 1472 1471 1470 1470 1469
1470 1467 1470 1473 1471 1468 1467 1466 1466 1465 1465 1466 1466 1467 1467 1468 1469 1470 1471 1472 1472 1473 1473 1474 1474 1473 1474 1474 1474 1474 1474 1473 1473 1472 1472 1472 1471 1471 1470 1469 1469 1468 1468 1467
1473 1470 1472 1473 1470 1468 1467 1467 1467 1465 1465 1465 1465 1466 1466 1467 1468 1469 1470 1470 1471 1472 1472 1472 1472 1472 1472 1472 1472 1472 1472 1471 1471 1471 1470 1470 1469 1469 1468 1467 1467 1466 1466 1465
1474 1474 1475 1475 1470 1470 1469 1468 1467 1466 1465 1465 1465 1466 1466 1466 1467 1468 1469 1469 1470 1470 1470 1470 1470 1470 1470 1470 1470 1470 1470 1469 1469 1468 1468 1467 1467 1467 1466 1465 1465 1464 1464 1463